Regional Weather Roundup
Issued by NWS

Home | Current Version | Previous Version | Text Only | Print | Product List | Glossary Off
Versions: 1 2 3 4 5 6 7 8 9 10 11 12 13 14 15 16 17 18 19 20 21 22 23 24 25 26 27 28 29 30 31 32 33 34 35 36 37 38 39 40 41 42 43 44 45 46 47 48 49 50

000
ASUS43 KBIS 052101
RWRND

NORTH DAKOTA REGIONAL WEATHER ROUNDUP
NATIONAL WEATHER SERVICE BISMARCK ND
400 PM CDT TUE MAY 05 2015

NOTE: "FAIR" INDICATES FEW OR NO CLOUDS BELOW 12,000 FEET WITH NO
SIGNIFICANT WEATHER AND/OR OBSTRUCTIONS TO VISIBILITY.


NDZ001>003-009>011-017-052200-
NORTHWEST NORTH DAKOTA

CITY           SKY/WX    TMP DP  RH WIND       PRES   REMARKS
WILLISTON      SUNNY     81  43  26 S18G24    29.79F
MINOT          SUNNY     77  29  17 S23G32    29.88F
$$

NDZ018>021-031>035-040>046-052200-
SOUTHWEST NORTH DAKOTA

CITY           SKY/WX    TMP DP  RH WIND       PRES   REMARKS
BISMARCK       SUNNY     78  30  17 S21G29    29.92F
DICKINSON      MOSUNNY   72  49  44 S26G36    29.85F
GARRISON         N/A     77  33  20 S21G30    29.89F
HETTINGER ARPT CLOUDY    66  50  56 SE23G31   29.90F
$$

NDZ004>008-012>016-024-026-027-054-052200-
NORTHEAST NORTH DAKOTA

CITY           SKY/WX    TMP DP  RH WIND       PRES   REMARKS
GRAND FORKS    MOSUNNY   78  20  11 S17G26    30.01F
DEVILS LAKE    SUNNY     73  30  20 S23       29.98F
$$

NDZ022-023-025-028>030-036>039-047>053-052200-
SOUTHEAST NORTH DAKOTA

CITY           SKY/WX    TMP DP  RH WIND       PRES   REMARKS
FARGO          SUNNY     80  26  13 SE20G26   30.00F
JAMESTOWN      SUNNY     75  22  13 SE20G31   29.97F
$$




USA.gov is the U.S. government's official web portal to all federal, state and local government web resources and services.